Time,TemperatureF,DewpointF,PressureIn,WindDirection,WindDirectionDegrees,WindSpeedMPH,WindSpeedGustMPH,Humidity,HourlyPrecipIn,Conditions,Clouds,dailyrainin,SoftwareType,DateUTC
2013-09-29 00:05:00,55.0,53.9,29.84,West,270,0.0,3.0,96,0.00,,,-99.99,WeatherLink 5.7,2013-09-29 05:05:00,
2013-09-29 00:20:00,54.5,53.4,29.84,WNW,292,0.0,4.0,96,0.00,,,-99.99,WeatherLink 5.7,2013-09-29 05:20:00,
2013-09-29 00:35:00,54.2,53.1,29.85,West,270,0.0,6.0,96,0.00,,,-99.99,WeatherLink 5.7,2013-09-29 05:35:00,
2013-09-29 00:50:00,53.9,53.1,29.85,West,270,0.0,2.0,97,0.00,,,-99.99,WeatherLink 5.7,2013-09-29 05:50:00,
2013-09-29 01:05:00,53.6,52.8,29.86,West,270,0.0,3.0,97,0.00,,,-99.99,WeatherLink 5.7,2013-09-29 06:05:00,
2013-09-29 01:20:00,53.3,52.5,29.86,WNW,292,0.0,1.0,97,0.00,,,-99.99,WeatherLink 5.7,2013-09-29 06:20:00,
2013-09-29 01:35:00,53.1,52.3,29.86,North,-999,0.0,0.0,97,0.00,,,-99.99,WeatherLink 5.7,2013-09-29 06:35:00,
2013-09-29 01:50:00,52.3,51.5,29.86,North,-999,0.0,0.0,97,0.00,,,-99.99,WeatherLink 5.7,2013-09-29 06:50:00,
2013-09-29 02:05:00,52.0,51.2,29.86,North,-999,0.0,0.0,97,0.00,,,-99.99,WeatherLink 5.7,2013-09-29 07:05:00,
2013-09-29 02:20:00,51.9,51.1,29.86,North,-999,0.0,0.0,97,0.00,,,-99.99,WeatherLink 5.7,2013-09-29 07:20:00,
2013-09-29 02:36:00,51.6,50.8,29.86,North,-999,0.0,0.0,97,0.00,,,-99.99,WeatherLink 5.7,2013-09-29 07:36:00,
2013-09-29 02:50:00,51.1,50.3,29.86,North,-999,0.0,0.0,97,0.00,,,-99.99,WeatherLink 5.7,2013-09-29 07:50:00,
2013-09-29 03:05:00,51.1,50.3,29.86,North,-999,0.0,0.0,97,0.01,,,-99.99,WeatherLink 5.7,2013-09-29 08:05:00,
2013-09-29 03:20:00,52.2,51.4,29.87,West,270,0.0,4.0,97,0.01,,,-99.99,WeatherLink 5.7,2013-09-29 08:20:00,
2013-09-29 03:35:00,52.5,51.7,29.86,North,0,0.0,5.0,97,0.01,,,-99.99,WeatherLink 5.7,2013-09-29 08:35:00,
2013-09-29 03:50:00,52.5,51.7,29.87,West,270,0.0,3.0,97,0.01,,,-99.99,WeatherLink 5.7,2013-09-29 08:50:00,
2013-09-29 04:05:00,52.0,51.2,29.87,West,270,0.0,4.0,97,0.00,,,-99.99,WeatherLink 5.7,2013-09-29 09:05:00,
2013-09-29 04:20:00,52.0,51.5,29.88,West,270,0.0,2.0,98,0.00,,,-99.99,WeatherLink 5.7,2013-09-29 09:20:00,
2013-09-29 04:35:00,52.0,51.5,29.88,WNW,292,0.0,3.0,98,0.00,,,-99.99,WeatherLink 5.7,2013-09-29 09:35:00,
2013-09-29 04:50:00,52.0,51.5,29.88,WNW,292,0.0,4.0,98,0.00,,,-99.99,WeatherLink 5.7,2013-09-29 09:50:00,
2013-09-29 05:05:00,51.7,51.2,29.88,West,270,0.0,4.0,98,0.00,,,-99.99,WeatherLink 5.7,2013-09-29 10:05:00,
2013-09-29 05:20:00,51.6,51.1,29.88,North,-999,0.0,0.0,98,0.00,,,-99.99,WeatherLink 5.7,2013-09-29 10:20:00,
2013-09-29 05:35:00,51.3,50.8,29.89,West,270,0.0,4.0,98,0.00,,,-99.99,WeatherLink 5.7,2013-09-29 10:35:00,
2013-09-29 05:50:00,51.1,50.6,29.89,WNW,292,0.0,1.0,98,0.00,,,-99.99,WeatherLink 5.7,2013-09-29 10:50:00,
2013-09-29 06:05:00,50.7,50.2,29.90,West,270,0.0,1.0,98,0.00,,,-99.99,WeatherLink 5.7,2013-09-29 11:05:00,
2013-09-29 06:20:00,50.5,50.0,29.90,West,270,0.0,1.0,98,0.00,,,-99.99,WeatherLink 5.7,2013-09-29 11:20:00,
2013-09-29 06:35:00,50.5,50.0,29.91,WSW,247,0.0,3.0,98,0.00,,,-99.99,WeatherLink 5.7,2013-09-29 11:35:00,
2013-09-29 06:50:00,50.5,50.0,29.91,WSW,247,0.0,4.0,98,0.00,,,-99.99,WeatherLink 5.7,2013-09-29 11:50:00,
2013-09-29 07:06:00,50.1,49.6,29.92,WSW,247,0.0,4.0,98,0.00,,,-99.99,WeatherLink 5.7,2013-09-29 12:06:00,
2013-09-29 07:20:00,49.8,49.3,29.92,West,270,0.0,3.0,98,0.00,,,-99.99,WeatherLink 5.7,2013-09-29 12:20:00,
2013-09-29 07:35:00,49.6,49.1,29.92,West,270,0.0,3.0,98,0.00,,,-99.99,WeatherLink 5.7,2013-09-29 12:35:00,
2013-09-29 07:50:00,49.5,49.0,29.92,North,-999,0.0,0.0,98,0.00,,,-99.99,WeatherLink 5.7,2013-09-29 12:50:00,
2013-09-29 08:05:00,49.8,49.3,29.93,NW,315,0.0,1.0,98,0.00,,,-99.99,WeatherLink 5.7,2013-09-29 13:05:00,
2013-09-29 08:20:00,49.8,49.3,29.93,WSW,247,0.0,3.0,98,0.00,,,-99.99,WeatherLink 5.7,2013-09-29 13:20:00,
2013-09-29 08:35:00,49.9,49.4,29.93,WSW,247,0.0,3.0,98,0.00,,,-99.99,WeatherLink 5.7,2013-09-29 13:35:00,
2013-09-29 08:50:00,50.7,50.2,29.94,WNW,292,0.0,2.0,98,0.00,,,-99.99,WeatherLink 5.7,2013-09-29 13:50:00,
2013-09-29 09:05:00,50.8,50.3,29.94,WNW,292,0.0,1.0,98,0.00,,,-99.99,WeatherLink 5.7,2013-09-29 14:05:00,
2013-09-29 09:20:00,52.6,52.1,29.94,WNW,292,0.0,1.0,98,0.00,,,-99.99,WeatherLink 5.7,2013-09-29 14:20:00,
2013-09-29 09:35:00,53.8,53.2,29.94,North,-999,0.0,0.0,98,0.00,,,-99.99,WeatherLink 5.7,2013-09-29 14:35:00,
2013-09-29 09:50:00,54.7,54.1,29.95,North,-999,0.0,0.0,98,0.00,,,-99.99,WeatherLink 5.7,2013-09-29 14:50:00,
2013-09-29 10:05:00,55.0,54.4,29.95,NNE,22,0.0,2.0,98,0.00,,,-99.99,WeatherLink 5.7,2013-09-29 15:05:00,
2013-09-29 10:20:00,56.9,55.8,29.95,North,-999,0.0,0.0,96,0.00,,,-99.99,WeatherLink 5.7,2013-09-29 15:20:00,
2013-09-29 10:35:00,57.6,55.0,29.95,North,0,0.0,4.0,91,0.00,,,-99.99,WeatherLink 5.7,2013-09-29 15:35:00,
2013-09-29 10:50:00,58.9,54.4,29.95,West,270,0.0,6.0,85,0.00,,,-99.99,WeatherLink 5.7,2013-09-29 15:50:00,
2013-09-29 11:05:00,60.5,52.2,29.95,North,-999,0.0,0.0,74,0.00,,,-99.99,WeatherLink 5.7,2013-09-29 16:05:00,
2013-09-29 11:20:00,62.3,50.4,29.95,North,0,0.0,1.0,65,0.00,,,-99.99,WeatherLink 5.7,2013-09-29 16:20:00,
2013-09-29 11:35:00,64.2,50.9,29.94,NNW,337,0.0,1.0,62,0.00,,,-99.99,WeatherLink 5.7,2013-09-29 16:35:00,
2013-09-29 11:50:00,64.3,47.8,29.93,West,270,0.0,5.0,55,0.00,,,-99.99,WeatherLink 5.7,2013-09-29 16:50:00,
2013-09-29 12:05:00,64.2,47.2,29.93,West,270,0.0,3.0,54,0.00,,,-99.99,WeatherLink 5.7,2013-09-29 17:05:00,
2013-09-29 12:20:00,66.0,48.4,29.93,NNE,22,0.0,1.0,53,0.00,,,-99.99,WeatherLink 5.7,2013-09-29 17:20:00,
2013-09-29 12:36:00,65.8,47.2,29.92,NW,315,0.0,3.0,51,0.00,,,-99.99,WeatherLink 5.7,2013-09-29 17:36:00,
2013-09-29 12:50:00,66.6,45.7,29.92,NW,315,0.0,1.0,47,0.00,,,-99.99,WeatherLink 5.7,2013-09-29 17:50:00,
2013-09-29 13:05:00,66.6,44.0,29.92,WNW,292,0.0,4.0,44,0.00,,,-99.99,WeatherLink 5.7,2013-09-29 18:05:00,
2013-09-29 13:20:00,66.4,43.8,29.91,NNE,22,0.0,4.0,44,0.00,,,-99.99,WeatherLink 5.7,2013-09-29 18:20:00,
2013-09-29 13:35:00,66.8,42.3,29.90,NNE,22,0.0,5.0,41,0.00,,,-99.99,WeatherLink 5.7,2013-09-29 18:35:00,
2013-09-29 13:50:00,67.1,41.3,29.90,WNW,292,0.0,3.0,39,0.00,,,-99.99,WeatherLink 5.7,2013-09-29 18:50:00,
2013-09-29 14:05:00,67.8,43.2,29.89,NW,315,0.0,3.0,41,0.00,,,-99.99,WeatherLink 5.7,2013-09-29 19:05:00,
2013-09-29 14:20:00,67.9,41.3,29.89,West,270,0.0,4.0,38,0.00,,,-99.99,WeatherLink 5.7,2013-09-29 19:20:00,
2013-09-29 14:35:00,67.8,40.6,29.89,NE,45,0.0,4.0,37,0.00,,,-99.99,WeatherLink 5.7,2013-09-29 19:35:00,
2013-09-29 14:50:00,68.1,42.9,29.88,NE,45,0.0,2.0,40,0.00,,,-99.99,WeatherLink 5.7,2013-09-29 19:50:00,
2013-09-29 15:05:00,68.9,41.5,29.88,WNW,292,0.0,1.0,37,0.00,,,-99.99,WeatherLink 5.7,2013-09-29 20:05:00,
2013-09-29 15:20:00,68.9,43.6,29.87,NNE,22,0.0,3.0,40,0.00,,,-99.99,WeatherLink 5.7,2013-09-29 20:20:00,
2013-09-29 15:35:00,68.6,41.3,29.87,SE,135,0.0,3.0,37,0.00,,,-99.99,WeatherLink 5.7,2013-09-29 20:35:00,
2013-09-29 15:50:00,68.9,41.5,29.87,SE,135,1.0,6.0,37,0.00,,,-99.99,WeatherLink 5.7,2013-09-29 20:50:00,
2013-09-29 16:05:00,69.1,42.4,29.87,SSE,157,0.0,3.0,38,0.00,,,-99.99,WeatherLink 5.7,2013-09-29 21:05:00,
2013-09-29 16:20:00,69.8,40.2,29.86,East,90,0.0,1.0,34,0.00,,,-99.99,WeatherLink 5.7,2013-09-29 21:20:00,
2013-09-29 16:36:00,69.6,40.7,29.86,East,90,0.0,3.0,35,0.00,,,-99.99,WeatherLink 5.7,2013-09-29 21:36:00,
2013-09-29 16:50:00,70.8,43.2,29.86,ESE,112,0.0,4.0,37,0.00,,,-99.99,WeatherLink 5.7,2013-09-29 21:50:00,
2013-09-29 17:05:00,70.9,43.3,29.86,ESE,112,0.0,1.0,37,0.00,,,-99.99,WeatherLink 5.7,2013-09-29 22:05:00,
2013-09-29 17:20:00,70.8,47.2,29.86,East,90,0.0,4.0,43,0.00,,,-99.99,WeatherLink 5.7,2013-09-29 22:20:00,
2013-09-29 17:35:00,71.5,45.9,29.86,East,90,0.0,1.0,40,0.00,,,-99.99,WeatherLink 5.7,2013-09-29 22:35:00,
2013-09-29 17:50:00,71.3,48.9,29.86,North,-999,0.0,0.0,45,0.00,,,-99.99,WeatherLink 5.7,2013-09-29 22:50:00,
2013-09-29 18:05:00,70.9,48.5,29.86,North,-999,0.0,0.0,45,0.00,,,-99.99,WeatherLink 5.7,2013-09-29 23:05:00,
2013-09-29 18:20:00,67.8,50.0,29.86,North,-999,0.0,0.0,53,0.00,,,-99.99,WeatherLink 5.7,2013-09-29 23:20:00,
2013-09-29 18:35:00,64.5,48.4,29.86,North,-999,0.0,0.0,56,0.00,,,-99.99,WeatherLink 5.7,2013-09-29 23:35:00,
2013-09-29 18:50:00,61.2,48.1,29.86,North,-999,0.0,0.0,62,0.00,,,-99.99,WeatherLink 5.7,2013-09-29 23:50:00,
2013-09-29 19:05:00,58.7,47.8,29.87,North,-999,0.0,0.0,67,0.00,,,-99.99,WeatherLink 5.7,2013-09-30 00:05:00,
2013-09-29 19:20:00,57.0,47.7,29.87,North,-999,0.0,0.0,71,0.00,,,-99.99,WeatherLink 5.7,2013-09-30 00:20:00,
2013-09-29 19:35:00,55.4,47.2,29.88,North,-999,0.0,0.0,74,0.00,,,-99.99,WeatherLink 5.7,2013-09-30 00:35:00,
2013-09-29 19:50:00,54.2,47.1,29.88,North,-999,0.0,0.0,77,0.00,,,-99.99,WeatherLink 5.7,2013-09-30 00:50:00,
2013-09-29 20:05:00,53.1,46.8,29.88,North,-999,0.0,0.0,79,0.00,,,-99.99,WeatherLink 5.7,2013-09-30 01:05:00,
2013-09-29 20:20:00,52.2,46.2,29.88,North,-999,0.0,0.0,80,0.00,,,-99.99,WeatherLink 5.7,2013-09-30 01:20:00,
2013-09-29 20:35:00,51.4,46.1,29.88,North,-999,0.0,0.0,82,0.00,,,-99.99,WeatherLink 5.7,2013-09-30 01:35:00,
2013-09-29 20:50:00,50.7,45.4,29.88,North,-999,0.0,0.0,82,0.00,,,-99.99,WeatherLink 5.7,2013-09-30 01:50:00,
2013-09-29 21:05:00,50.1,45.5,29.89,North,-999,0.0,0.0,84,0.00,,,-99.99,WeatherLink 5.7,2013-09-30 02:05:00,
2013-09-29 21:20:00,49.4,45.4,29.88,North,-999,0.0,0.0,86,0.00,,,-99.99,WeatherLink 5.7,2013-09-30 02:20:00,
2013-09-29 21:36:00,49.1,45.4,29.88,North,-999,0.0,0.0,87,0.00,,,-99.99,WeatherLink 5.7,2013-09-30 02:36:00,
2013-09-29 21:51:00,48.8,45.4,29.88,North,-999,0.0,0.0,88,0.00,,,-99.99,WeatherLink 5.7,2013-09-30 02:51:00,
2013-09-29 22:06:00,48.5,45.4,29.88,North,-999,0.0,0.0,89,0.00,,,-99.99,WeatherLink 5.7,2013-09-30 03:06:00,
2013-09-29 22:20:00,48.2,45.1,29.88,North,-999,0.0,0.0,89,0.00,,,-99.99,WeatherLink 5.7,2013-09-30 03:20:00,
2013-09-29 22:35:00,47.9,44.8,29.88,North,-999,0.0,0.0,89,0.00,,,-99.99,WeatherLink 5.7,2013-09-30 03:35:00,
2013-09-29 22:50:00,47.6,44.8,29.88,North,-999,0.0,0.0,90,0.00,,,-99.99,WeatherLink 5.7,2013-09-30 03:50:00,
2013-09-29 23:05:00,47.4,44.6,29.88,North,-999,0.0,0.0,90,0.00,,,-99.99,WeatherLink 5.7,2013-09-30 04:05:00,
2013-09-29 23:20:00,47.1,44.3,29.88,North,-999,0.0,0.0,90,0.00,,,-99.99,WeatherLink 5.7,2013-09-30 04:20:00,
2013-09-29 23:35:00,47.0,44.2,29.88,North,-999,0.0,0.0,90,0.00,,,-99.99,WeatherLink 5.7,2013-09-30 04:35:00,
2013-09-29 23:50:00,47.0,44.5,29.88,North,-999,0.0,0.0,91,0.00,,,-99.99,WeatherLink 5.7,2013-09-30 04:50:00,